This is the latest recevied weather packets stored in our database for station/object SQ6IUS-13. If no packets are shown the sender has not sent any weather packets the latest 10 day(s).
| Time | Temp. | Humidity | Pressure | Rain* | Wind** | Luminosity | Snow |
|---|---|---|---|---|---|---|---|
| 1777408896 | 1.67° C | 100% | 1025.4 hPa | - | - | - | - |
| 1777407997 | 1.67° C | 100% | 1025.4 hPa | - | - | - | - |
| 1777407099 | 2.22° C | 100% | 1025.5 hPa | - | - | - | - |
| 1777406200 | 2.78° C | 100% | 1025.5 hPa | - | - | - | - |
| 1777405302 | 3.89° C | 52% | 1025.4 hPa | - | - | - | - |
| 1777404403 | 5° C | 47% | 1025.2 hPa | - | - | - | - |
| 1777403504 | 6.11° C | 41% | 1025.1 hPa | - | - | - | - |
| 1777402605 | 6.67° C | 41% | 1025.2 hPa | - | - | - | - |
| 1777401704 | 7.78° C | 37% | 1025 hPa | - | - | - | - |
| 1777400805 | 9.44° C | 33% | 1024.8 hPa | - | - | - | - |
| 1777399910 | 10.56° C | 31% | 1024.5 hPa | - | - | - | - |
| 1777399008 | 12.78° C | 28% | 1024.4 hPa | - | - | - | - |
| 1777398110 | 15.56° C | 24% | 1024.2 hPa | - | - | - | - |
| 1777397211 | 17.78° C | 23% | 1024.1 hPa | - | - | - | - |
| 1777395415 | 21.11° C | 20% | 1023.9 hPa | - | - | - | - |
| 1777394516 | 21.67° C | 19% | 1023.9 hPa | - | - | - | - |
| 1777392719 | 23.89° C | 18% | 1023.9 hPa | - | - | - | - |
| 1777390921 | 25.56° C | 16% | 1023.9 hPa | - | - | - | - |
| 1777390022 | 26.67° C | 16% | 1023.8 hPa | - | - | - | - |
| 1777389124 | 28.33° C | 14% | 1023.9 hPa | - | - | - | - |
| 1777388225 | 28.33° C | 15% | 1023.9 hPa | - | - | - | - |
| 1777387326 | 30.56° C | 14% | 1024 hPa | - | - | - | - |
| 1777386427 | 28.89° C | 14% | 1024 hPa | - | - | - | - |
| 1777385528 | 29.44° C | 14% | 1024.2 hPa | - | - | - | - |
| 1777384633 | 30.56° C | 14% | 1024.3 hPa | - | - | - | - |
* Rain since midnight (hover to see other rain measurements)
** Current wind speed in m/s (hover to see current wind gust speed)